Location: ??????
(36.0418°N, 43.6351°E)
Time: 22:08:23
(UTC+00:00)

Envisat - Pass Details

Date: 07 March 2021
Orbit: 764 x 766 km, 98.1° (Epoch: 19 April)

Event Time Altitude Azimuth Distance (km) Brightness Sun altitude
Rises 02:31:42 0° 15° (NNE) 3,238 6.5 -12.1°
Reaches altitude 10° 02:34:02 10° 18° (NNE) 2,307 5.7 -11.7°
Maximum altitude 02:39:06 69° 102° (ESE) 817 3.4 -10.6°
Drops below altitude 10° 02:44:08 10° 185° (S) 2,291 5.4 -9.6°
Sets 02:46:26 0° 188° (S) 3,213 6.1 -9.2°
